Year,Month,Day,Hour,Minute,Value (Times are PST for temperature in C)
2007,08,14,00,00,11.40
2007,08,14,00,01,11.40
2007,08,14,00,02,11.40
2007,08,14,00,03,11.40
2007,08,14,00,04,11.30
2007,08,14,00,05,11.30
2007,08,14,00,06,11.30
2007,08,14,00,07,11.30
2007,08,14,00,08,11.30
2007,08,14,00,09,11.20
2007,08,14,00,10,11.20
2007,08,14,00,11,11.20
2007,08,14,00,12,11.20
2007,08,14,00,13,11.20
2007,08,14,00,14,11.20
2007,08,14,00,15,11.20
2007,08,14,00,16,11.20
2007,08,14,00,17,11.20
2007,08,14,00,18,11.20
2007,08,14,00,19,11.20
2007,08,14,00,20,11.20
2007,08,14,00,21,11.20
2007,08,14,00,22,11.20
2007,08,14,00,23,11.20
2007,08,14,00,24,11.20
2007,08,14,00,25,11.20
2007,08,14,00,26,11.20
2007,08,14,00,27,11.20
2007,08,14,00,28,11.20
2007,08,14,00,29,11.20
2007,08,14,00,30,11.20
2007,08,14,00,31,11.20
2007,08,14,00,32,11.20
2007,08,14,00,33,11.20
2007,08,14,00,34,11.20
2007,08,14,00,35,11.20
2007,08,14,00,36,11.20
2007,08,14,00,37,11.20
2007,08,14,00,38,11.20
2007,08,14,00,39,11.20
2007,08,14,00,40,11.20
2007,08,14,00,41,11.20
2007,08,14,00,42,11.20
2007,08,14,00,43,11.20
2007,08,14,00,44,11.20
2007,08,14,00,45,11.20
2007,08,14,00,46,11.10
2007,08,14,00,47,11.10
2007,08,14,00,48,11.10
2007,08,14,00,49,11.10
2007,08,14,00,50,11.00
2007,08,14,00,51,11.00
2007,08,14,00,52,11.00
2007,08,14,00,53,11.00
2007,08,14,00,54,11.00
2007,08,14,00,55,11.00
2007,08,14,00,56,11.00
2007,08,14,00,57,11.00
2007,08,14,00,58,11.00
2007,08,14,00,59,11.00
2007,08,14,01,00,11.00
2007,08,14,01,01,11.00
2007,08,14,01,02,11.00
2007,08,14,01,03,11.10
2007,08,14,01,04,11.00
2007,08,14,01,05,11.10
2007,08,14,01,06,11.10
2007,08,14,01,07,11.20
2007,08,14,01,08,11.20
2007,08,14,01,09,11.20
2007,08,14,01,10,11.20
2007,08,14,01,11,11.20
2007,08,14,01,12,11.20
2007,08,14,01,13,11.20
2007,08,14,01,14,11.10
2007,08,14,01,15,11.10
2007,08,14,01,16,11.10
2007,08,14,01,17,11.00
2007,08,14,01,18,11.00
2007,08,14,01,19,11.10
2007,08,14,01,20,11.10
2007,08,14,01,21,11.10
2007,08,14,01,22,11.00
2007,08,14,01,23,11.00
2007,08,14,01,24,10.90
2007,08,14,01,25,10.90
2007,08,14,01,26,10.90
2007,08,14,01,27,10.90
2007,08,14,01,28,10.90
2007,08,14,01,29,10.90
2007,08,14,01,30,10.90
2007,08,14,01,31,10.90
2007,08,14,01,32,10.90
2007,08,14,01,33,10.90
2007,08,14,01,34,10.80
2007,08,14,01,35,10.90
2007,08,14,01,36,10.90
2007,08,14,01,37,10.80
2007,08,14,01,38,10.80
2007,08,14,01,39,10.80
2007,08,14,01,40,10.90
2007,08,14,01,41,10.90
2007,08,14,01,42,10.90
2007,08,14,01,43,10.90
2007,08,14,01,44,10.90
2007,08,14,01,45,10.90
2007,08,14,01,46,10.80
2007,08,14,01,47,10.80
2007,08,14,01,48,10.80
2007,08,14,01,49,10.80
2007,08,14,01,50,10.80
2007,08,14,01,51,10.80
2007,08,14,01,52,10.80
2007,08,14,01,53,10.80
2007,08,14,01,54,10.80
2007,08,14,01,55,10.80
2007,08,14,01,56,10.80
2007,08,14,01,57,10.80
2007,08,14,01,58,10.80
2007,08,14,01,59,10.80
2007,08,14,02,00,10.80
2007,08,14,02,01,10.80
2007,08,14,02,02,10.80
2007,08,14,02,03,10.80
2007,08,14,02,04,10.80
2007,08,14,02,05,10.80
2007,08,14,02,06,10.90
2007,08,14,02,07,10.90
2007,08,14,02,08,10.90
2007,08,14,02,09,10.90
2007,08,14,02,10,10.90
2007,08,14,02,11,10.90
2007,08,14,02,12,10.90
2007,08,14,02,13,10.90
2007,08,14,02,14,11.00
2007,08,14,02,15,11.00
2007,08,14,02,16,11.00
2007,08,14,02,17,10.90
2007,08,14,02,18,10.80
2007,08,14,02,19,10.80
2007,08,14,02,20,10.80
2007,08,14,02,21,10.80
2007,08,14,02,22,10.80
2007,08,14,02,23,10.80
2007,08,14,02,24,10.80
2007,08,14,02,25,10.80
2007,08,14,02,26,10.80
2007,08,14,02,27,10.80
2007,08,14,02,28,10.80
2007,08,14,02,29,10.80
2007,08,14,02,30,10.80
2007,08,14,02,31,10.80
2007,08,14,02,32,10.80
2007,08,14,02,33,10.80
2007,08,14,02,34,10.80
2007,08,14,02,35,10.80
2007,08,14,02,36,10.80
2007,08,14,02,37,10.80
2007,08,14,02,38,10.70
2007,08,14,02,39,10.70
2007,08,14,02,40,10.80
2007,08,14,02,41,10.80
2007,08,14,02,42,10.80
2007,08,14,02,43,10.80
2007,08,14,02,44,10.90
2007,08,14,02,45,10.90
2007,08,14,02,46,10.90
2007,08,14,02,47,10.90
2007,08,14,02,48,10.90
2007,08,14,02,49,10.80
2007,08,14,02,50,10.80
2007,08,14,02,51,10.90
2007,08,14,02,52,10.90
2007,08,14,02,53,10.80
2007,08,14,02,54,10.80
2007,08,14,02,55,10.80
2007,08,14,02,56,10.80
2007,08,14,02,57,10.80
2007,08,14,02,58,10.80
2007,08,14,02,59,10.70
2007,08,14,03,00,10.70
2007,08,14,03,01,10.70
2007,08,14,03,02,10.80
2007,08,14,03,03,10.80
2007,08,14,03,04,10.80
2007,08,14,03,05,10.80
2007,08,14,03,06,10.80
2007,08,14,03,07,10.80
2007,08,14,03,08,10.70
2007,08,14,03,09,10.70
2007,08,14,03,10,10.80
2007,08,14,03,11,10.80
2007,08,14,03,12,10.70
2007,08,14,03,13,10.70
2007,08,14,03,14,10.70
2007,08,14,03,15,10.70
2007,08,14,03,16,10.70
2007,08,14,03,17,10.70
2007,08,14,03,18,10.70
2007,08,14,03,19,10.70
2007,08,14,03,20,10.70
2007,08,14,03,21,10.70
2007,08,14,03,22,10.70
2007,08,14,03,23,10.70
2007,08,14,03,24,10.70
2007,08,14,03,25,10.60
2007,08,14,03,26,10.60
2007,08,14,03,27,10.70
2007,08,14,03,28,10.70
2007,08,14,03,29,10.70
2007,08,14,03,30,10.70
2007,08,14,03,31,10.70
2007,08,14,03,32,10.60
2007,08,14,03,33,10.60
2007,08,14,03,34,10.60
2007,08,14,03,35,10.60
2007,08,14,03,36,10.60
2007,08,14,03,37,10.60
2007,08,14,03,38,10.70
2007,08,14,03,39,10.70
2007,08,14,03,40,10.70
2007,08,14,03,41,10.70
2007,08,14,03,42,10.70
2007,08,14,03,43,10.70
2007,08,14,03,44,10.70
2007,08,14,03,45,10.70
2007,08,14,03,46,10.70
2007,08,14,03,47,10.60
2007,08,14,03,48,10.60
2007,08,14,03,49,10.60
2007,08,14,03,50,10.70
2007,08,14,03,51,10.70
2007,08,14,03,52,10.60
2007,08,14,03,53,10.60
2007,08,14,03,54,10.70
2007,08,14,03,55,10.70
2007,08,14,03,56,10.60
2007,08,14,03,57,10.60
2007,08,14,03,58,10.60
2007,08,14,03,59,10.50
2007,08,14,04,00,10.50
2007,08,14,04,01,10.40
2007,08,14,04,02,10.40
2007,08,14,04,03,10.50
2007,08,14,04,04,10.50
2007,08,14,04,05,10.50
2007,08,14,04,06,10.50
2007,08,14,04,07,10.40
2007,08,14,04,08,10.40
2007,08,14,04,09,10.50
2007,08,14,04,10,10.60
2007,08,14,04,11,10.60
2007,08,14,04,12,10.60
2007,08,14,04,13,10.60
2007,08,14,04,14,10.60
2007,08,14,04,15,10.60
2007,08,14,04,16,10.60
2007,08,14,04,17,10.60
2007,08,14,04,18,10.60
2007,08,14,04,19,10.60
2007,08,14,04,20,10.60
2007,08,14,04,21,10.60
2007,08,14,04,22,10.60
2007,08,14,04,23,10.60
2007,08,14,04,24,10.60
2007,08,14,04,25,10.50
2007,08,14,04,26,10.50
2007,08,14,04,27,10.50
2007,08,14,04,28,10.60
2007,08,14,04,29,10.70
2007,08,14,04,30,10.70
2007,08,14,04,31,10.70
2007,08,14,04,32,10.70
2007,08,14,04,33,10.70
2007,08,14,04,34,10.70
2007,08,14,04,35,10.70
2007,08,14,04,36,10.70
2007,08,14,04,37,10.70
2007,08,14,04,38,10.70
2007,08,14,04,39,10.60
2007,08,14,04,40,10.60
2007,08,14,04,41,10.60
2007,08,14,04,42,10.60
2007,08,14,04,43,10.60
2007,08,14,04,44,10.70
2007,08,14,04,45,10.70
2007,08,14,04,46,10.70
2007,08,14,04,47,10.70
2007,08,14,04,48,10.60
2007,08,14,04,49,10.60
2007,08,14,04,50,10.60
2007,08,14,04,51,10.60
2007,08,14,04,52,10.60
2007,08,14,04,53,10.60
2007,08,14,04,54,10.70
2007,08,14,04,55,10.70
2007,08,14,04,56,10.70
2007,08,14,04,57,10.70
2007,08,14,04,58,10.60
2007,08,14,04,59,10.60
2007,08,14,05,00,10.60
2007,08,14,05,01,10.60
2007,08,14,05,02,10.60
2007,08,14,05,03,10.70
2007,08,14,05,04,10.70
2007,08,14,05,05,10.70
2007,08,14,05,06,10.70
2007,08,14,05,07,10.70
2007,08,14,05,08,10.70
2007,08,14,05,09,10.80
2007,08,14,05,10,10.80
2007,08,14,05,11,10.80
2007,08,14,05,12,10.80
2007,08,14,05,13,10.90
2007,08,14,05,14,10.90
2007,08,14,05,15,10.90
2007,08,14,05,16,10.80
2007,08,14,05,17,10.80
2007,08,14,05,18,10.80
2007,08,14,05,19,10.80
2007,08,14,05,20,10.80
2007,08,14,05,21,10.80
2007,08,14,05,22,10.80
2007,08,14,05,23,10.80
2007,08,14,05,24,10.80
2007,08,14,05,25,10.80
2007,08,14,05,26,10.90
2007,08,14,05,27,10.80
2007,08,14,05,28,10.80
2007,08,14,05,29,10.90
2007,08,14,05,30,10.90
2007,08,14,05,31,10.90
2007,08,14,05,32,10.90
2007,08,14,05,33,10.80
2007,08,14,05,34,10.80
2007,08,14,05,35,10.80
2007,08,14,05,36,10.80
2007,08,14,05,37,10.80
2007,08,14,05,38,10.80
2007,08,14,05,39,10.90
2007,08,14,05,40,10.90
2007,08,14,05,41,10.90
2007,08,14,05,42,10.90
2007,08,14,05,43,10.90
2007,08,14,05,44,10.90
2007,08,14,05,45,10.90
2007,08,14,05,46,10.90
2007,08,14,05,47,10.90
2007,08,14,05,48,10.90
2007,08,14,05,49,10.90
2007,08,14,05,50,10.90
2007,08,14,05,51,10.90
2007,08,14,05,52,10.90
2007,08,14,05,53,10.90
2007,08,14,05,54,10.90
2007,08,14,05,55,10.90
2007,08,14,05,56,10.90
2007,08,14,05,57,11.00
2007,08,14,05,58,11.00
2007,08,14,05,59,11.00
2007,08,14,06,00,11.00
2007,08,14,06,01,11.00
2007,08,14,06,02,11.00
2007,08,14,06,03,11.00
2007,08,14,06,04,11.10
2007,08,14,06,05,11.10
2007,08,14,06,06,11.10
2007,08,14,06,07,11.10
2007,08,14,06,08,11.10
2007,08,14,06,09,11.10
2007,08,14,06,10,11.20
2007,08,14,06,11,11.20
2007,08,14,06,12,11.20
2007,08,14,06,13,11.20
2007,08,14,06,14,11.30
2007,08,14,06,15,11.40
2007,08,14,06,16,11.50
2007,08,14,06,17,11.60
2007,08,14,06,18,11.60
2007,08,14,06,19,11.60
2007,08,14,06,20,11.60
2007,08,14,06,21,11.70
2007,08,14,06,22,11.70
2007,08,14,06,23,11.70
2007,08,14,06,24,11.70
2007,08,14,06,25,11.70
2007,08,14,06,26,11.70
2007,08,14,06,27,11.70
2007,08,14,06,28,11.80
2007,08,14,06,29,11.80
2007,08,14,06,30,11.80
2007,08,14,06,31,11.90
2007,08,14,06,32,11.90
2007,08,14,06,33,12.00
2007,08,14,06,34,12.00
2007,08,14,06,35,12.10
2007,08,14,06,36,12.10
2007,08,14,06,37,12.10
2007,08,14,06,38,12.10
2007,08,14,06,39,12.10
2007,08,14,06,40,12.10
2007,08,14,06,41,12.20
2007,08,14,06,42,12.20
2007,08,14,06,43,12.20
2007,08,14,06,44,12.20
2007,08,14,06,45,12.20
2007,08,14,06,46,12.30
2007,08,14,06,47,12.30
2007,08,14,06,48,12.30
2007,08,14,06,49,12.40
2007,08,14,06,50,12.40
2007,08,14,06,51,12.50
2007,08,14,06,52,12.50
2007,08,14,06,53,12.50
2007,08,14,06,54,12.50
2007,08,14,06,55,12.50
2007,08,14,06,56,12.50
2007,08,14,06,57,12.60
2007,08,14,06,58,12.60
2007,08,14,06,59,12.60
2007,08,14,07,00,12.60
2007,08,14,07,01,12.60
2007,08,14,07,02,12.60
2007,08,14,07,03,12.60
2007,08,14,07,04,12.60
2007,08,14,07,05,12.60
2007,08,14,07,06,12.60
2007,08,14,07,07,12.60
2007,08,14,07,08,12.70
2007,08,14,07,09,12.70
2007,08,14,07,10,12.70
2007,08,14,07,11,12.70
2007,08,14,07,12,12.70
2007,08,14,07,13,12.70
2007,08,14,07,14,12.70
2007,08,14,07,15,12.70
2007,08,14,07,16,12.70
2007,08,14,07,17,12.70
2007,08,14,07,18,12.70
2007,08,14,07,19,12.70
2007,08,14,07,20,12.70
2007,08,14,07,21,12.70
2007,08,14,07,22,12.70
2007,08,14,07,23,12.70
2007,08,14,07,24,12.70
2007,08,14,07,25,12.70
2007,08,14,07,26,12.70
2007,08,14,07,27,12.80
2007,08,14,07,28,12.90
2007,08,14,07,29,12.90
2007,08,14,07,30,13.00
2007,08,14,07,31,13.00
2007,08,14,07,32,13.10
2007,08,14,07,33,13.10
2007,08,14,07,34,13.10
2007,08,14,07,35,13.20
2007,08,14,07,36,13.20
2007,08,14,07,37,13.30
2007,08,14,07,38,13.30
2007,08,14,07,39,13.40
2007,08,14,07,40,13.40
2007,08,14,07,41,13.50
2007,08,14,07,42,13.50
2007,08,14,07,43,13.60
2007,08,14,07,44,13.70
2007,08,14,07,45,13.80
2007,08,14,07,46,13.90
2007,08,14,07,47,13.90
2007,08,14,07,48,14.00
2007,08,14,07,49,14.00
2007,08,14,07,50,14.10
2007,08,14,07,51,14.10
2007,08,14,07,52,14.20
2007,08,14,07,53,14.20
2007,08,14,07,54,14.30
2007,08,14,07,55,14.30
2007,08,14,07,56,14.40
2007,08,14,07,57,14.40
2007,08,14,07,58,14.50
2007,08,14,07,59,14.60
2007,08,14,08,00,14.70
2007,08,14,08,01,14.80
2007,08,14,08,02,15.00
2007,08,14,08,03,15.00
2007,08,14,08,04,15.00
2007,08,14,08,05,15.20
2007,08,14,08,06,15.30
2007,08,14,08,07,15.40
2007,08,14,08,08,15.50
2007,08,14,08,09,15.60
2007,08,14,08,10,15.70
2007,08,14,08,11,15.80
2007,08,14,08,12,15.90
2007,08,14,08,13,15.90
2007,08,14,08,14,16.00
2007,08,14,08,15,16.10
2007,08,14,08,16,16.20
2007,08,14,08,17,16.40
2007,08,14,08,18,16.50
2007,08,14,08,19,16.60
2007,08,14,08,20,16.70
2007,08,14,08,21,16.80
2007,08,14,08,22,16.80
2007,08,14,08,23,16.90
2007,08,14,08,24,17.00
2007,08,14,08,25,17.00
2007,08,14,08,26,17.10
2007,08,14,08,27,17.10
2007,08,14,08,28,17.10
2007,08,14,08,29,17.20
2007,08,14,08,30,17.20
2007,08,14,08,31,17.20
2007,08,14,08,32,17.20
2007,08,14,08,33,17.20
2007,08,14,08,34,17.20
2007,08,14,08,35,17.20
2007,08,14,08,36,17.20
2007,08,14,08,37,17.20
2007,08,14,08,38,17.20
2007,08,14,08,39,17.20
2007,08,14,08,40,17.20
2007,08,14,08,41,17.30
2007,08,14,08,42,17.30
2007,08,14,08,43,17.30
2007,08,14,08,44,17.30
2007,08,14,08,45,17.30
2007,08,14,08,46,17.30
2007,08,14,08,47,17.30
2007,08,14,08,48,17.30
2007,08,14,08,49,17.40
2007,08,14,08,50,17.40
2007,08,14,08,51,17.40
2007,08,14,08,52,17.40
2007,08,14,08,53,17.40
2007,08,14,08,54,17.50
2007,08,14,08,55,17.50
2007,08,14,08,56,17.60
2007,08,14,08,57,17.60
2007,08,14,08,58,17.60
2007,08,14,08,59,17.60
2007,08,14,09,00,17.70
2007,08,14,09,01,17.70
2007,08,14,09,02,17.80
2007,08,14,09,03,17.90
2007,08,14,09,04,17.90
2007,08,14,09,05,18.00
2007,08,14,09,06,18.00
2007,08,14,09,07,18.10
2007,08,14,09,08,18.10
2007,08,14,09,09,18.10
2007,08,14,09,10,18.10
2007,08,14,09,11,18.10
2007,08,14,09,12,18.00
2007,08,14,09,13,18.00
2007,08,14,09,14,18.00
2007,08,14,09,15,18.00
2007,08,14,09,16,18.00
2007,08,14,09,17,18.10
2007,08,14,09,18,18.10
2007,08,14,09,19,18.10
2007,08,14,09,20,18.20
2007,08,14,09,21,18.20
2007,08,14,09,22,18.30
2007,08,14,09,23,18.30
2007,08,14,09,24,18.40
2007,08,14,09,25,18.40
2007,08,14,09,26,18.50
2007,08,14,09,27,18.50
2007,08,14,09,28,18.50
2007,08,14,09,29,18.50
2007,08,14,09,30,18.50
2007,08,14,09,31,18.50
2007,08,14,09,32,18.50
2007,08,14,09,33,18.40
2007,08,14,09,34,18.40
2007,08,14,09,35,18.40
2007,08,14,09,36,18.40
2007,08,14,09,37,18.40
2007,08,14,09,38,18.40
2007,08,14,09,39,18.40
2007,08,14,09,40,18.50
2007,08,14,09,41,18.50
2007,08,14,09,42,18.60
2007,08,14,09,43,18.70
2007,08,14,09,44,18.80
2007,08,14,09,45,18.90
2007,08,14,09,46,18.90
2007,08,14,09,47,18.90
2007,08,14,09,48,18.90
2007,08,14,09,49,18.90
2007,08,14,09,50,18.90
2007,08,14,09,51,19.00
2007,08,14,09,52,19.00
2007,08,14,09,53,19.00
2007,08,14,09,54,19.00
2007,08,14,09,55,19.00
2007,08,14,09,56,18.90
2007,08,14,09,57,18.90
2007,08,14,09,58,18.90
2007,08,14,09,59,18.90
2007,08,14,10,00,18.90
2007,08,14,10,01,18.90
2007,08,14,10,02,19.00
2007,08,14,10,03,19.00
2007,08,14,10,04,19.10
2007,08,14,10,05,19.10
2007,08,14,10,06,19.10
2007,08,14,10,07,19.20
2007,08,14,10,08,19.20
2007,08,14,10,09,19.30
2007,08,14,10,10,19.30
2007,08,14,10,11,19.30
2007,08,14,10,12,19.30
2007,08,14,10,13,19.30
2007,08,14,10,14,19.30
2007,08,14,10,15,19.30
2007,08,14,10,16,19.20
2007,08,14,10,17,19.20
2007,08,14,10,18,19.20
2007,08,14,10,19,19.20
2007,08,14,10,20,19.20
2007,08,14,10,21,19.30
2007,08,14,10,22,19.20
2007,08,14,10,23,19.20
2007,08,14,10,24,19.20
2007,08,14,10,25,19.20
2007,08,14,10,26,19.10
2007,08,14,10,27,19.10
2007,08,14,10,28,19.10
2007,08,14,10,29,19.10
2007,08,14,10,30,19.10
2007,08,14,10,31,19.20
2007,08,14,10,32,19.20
2007,08,14,10,33,19.30
2007,08,14,10,34,19.40
2007,08,14,10,35,19.30
2007,08,14,10,36,19.30
2007,08,14,10,37,19.20
2007,08,14,10,38,19.20
2007,08,14,10,39,19.20
2007,08,14,10,40,19.30
2007,08,14,10,41,19.30
2007,08,14,10,42,19.30
2007,08,14,10,43,19.30
2007,08,14,10,44,19.30
2007,08,14,10,45,19.40
2007,08,14,10,46,19.40
2007,08,14,10,47,19.30
2007,08,14,10,48,19.30
2007,08,14,10,49,19.30
2007,08,14,10,50,19.30
2007,08,14,10,51,19.30
2007,08,14,10,52,19.30
2007,08,14,10,53,19.30
2007,08,14,10,54,19.30
2007,08,14,10,55,19.30
2007,08,14,10,56,19.30
2007,08,14,10,57,19.30
2007,08,14,10,58,19.30
2007,08,14,10,59,19.40
2007,08,14,11,00,19.50
2007,08,14,11,01,19.60
2007,08,14,11,02,19.60
2007,08,14,11,03,19.60
2007,08,14,11,04,19.70
2007,08,14,11,05,19.70
2007,08,14,11,06,19.80
2007,08,14,11,07,19.80
2007,08,14,11,08,19.80
2007,08,14,11,09,19.80
2007,08,14,11,10,19.80
2007,08,14,11,11,19.90
2007,08,14,11,12,20.00
2007,08,14,11,13,20.10
2007,08,14,11,14,20.10
2007,08,14,11,15,20.10
2007,08,14,11,16,20.10
2007,08,14,11,17,20.20
2007,08,14,11,18,20.20
2007,08,14,11,19,20.20
2007,08,14,11,20,20.10
2007,08,14,11,21,19.90
2007,08,14,11,22,19.80
2007,08,14,11,23,19.60
2007,08,14,11,24,19.40
2007,08,14,11,25,19.30
2007,08,14,11,26,19.20
2007,08,14,11,27,19.20
2007,08,14,11,28,19.20
2007,08,14,11,29,19.20
2007,08,14,11,30,19.30
2007,08,14,11,31,19.50
2007,08,14,11,32,19.70
2007,08,14,11,33,19.80
2007,08,14,11,34,20.00
2007,08,14,11,35,20.10
2007,08,14,11,36,20.20
2007,08,14,11,37,20.20
2007,08,14,11,38,20.20
2007,08,14,11,39,20.30
2007,08,14,11,40,20.30
2007,08,14,11,41,20.30
2007,08,14,11,42,20.30
2007,08,14,11,43,20.30
2007,08,14,11,44,20.30
2007,08,14,11,45,20.30
2007,08,14,11,46,20.30
2007,08,14,11,47,20.30
2007,08,14,11,48,20.40
2007,08,14,11,49,20.40
2007,08,14,11,50,20.40
2007,08,14,11,51,20.50
2007,08,14,11,52,20.40
2007,08,14,11,53,20.40
2007,08,14,11,54,20.40
2007,08,14,11,55,20.40
2007,08,14,11,56,20.40
2007,08,14,11,57,20.50
2007,08,14,11,58,20.60
2007,08,14,11,59,20.60
2007,08,14,12,00,20.50
2007,08,14,12,01,20.30
2007,08,14,12,02,20.20
2007,08,14,12,03,20.10
2007,08,14,12,04,20.10
2007,08,14,12,05,20.10
2007,08,14,12,06,20.10
2007,08,14,12,07,20.00
2007,08,14,12,08,20.00
2007,08,14,12,09,19.90
2007,08,14,12,10,19.90
2007,08,14,12,11,19.90
2007,08,14,12,12,20.00
2007,08,14,12,13,19.90
2007,08,14,12,14,19.80
2007,08,14,12,15,19.90
2007,08,14,12,16,19.90
2007,08,14,12,17,20.00
2007,08,14,12,18,20.10
2007,08,14,12,19,20.20
2007,08,14,12,20,20.30
2007,08,14,12,21,20.40
2007,08,14,12,22,20.40
2007,08,14,12,23,20.40
2007,08,14,12,24,20.50
2007,08,14,12,25,20.50
2007,08,14,12,26,20.40
2007,08,14,12,27,20.30
2007,08,14,12,28,20.30
2007,08,14,12,29,20.10
2007,08,14,12,30,20.10
2007,08,14,12,31,20.10
2007,08,14,12,32,20.00
2007,08,14,12,33,20.00
2007,08,14,12,34,20.00
2007,08,14,12,35,20.00
2007,08,14,12,36,20.00
2007,08,14,12,37,19.90
2007,08,14,12,38,19.90
2007,08,14,12,39,19.90
2007,08,14,12,40,19.90
2007,08,14,12,41,20.00
2007,08,14,12,42,20.10
2007,08,14,12,43,20.20
2007,08,14,12,44,20.40
2007,08,14,12,45,20.60
2007,08,14,12,46,20.80
2007,08,14,12,47,20.90
2007,08,14,12,48,21.00
2007,08,14,12,49,21.00
2007,08,14,12,50,21.10
2007,08,14,12,51,21.00
2007,08,14,12,52,21.00
2007,08,14,12,53,21.00
2007,08,14,12,54,20.90
2007,08,14,12,55,20.90
2007,08,14,12,56,20.90
2007,08,14,12,57,20.90
2007,08,14,12,58,20.90
2007,08,14,12,59,20.80
2007,08,14,13,00,20.70
2007,08,14,13,01,20.60
2007,08,14,13,02,20.50
2007,08,14,13,03,20.60
2007,08,14,13,04,20.70
2007,08,14,13,05,20.80
2007,08,14,13,06,20.90
2007,08,14,13,07,20.90
2007,08,14,13,08,20.90
2007,08,14,13,09,21.00
2007,08,14,13,10,21.00
2007,08,14,13,11,21.10
2007,08,14,13,12,21.10
2007,08,14,13,13,21.20
2007,08,14,13,14,21.30
2007,08,14,13,15,21.30
2007,08,14,13,16,21.40
2007,08,14,13,17,21.40
2007,08,14,13,18,21.40
2007,08,14,13,19,21.30
2007,08,14,13,20,21.30
2007,08,14,13,21,21.20
2007,08,14,13,22,21.10
2007,08,14,13,23,21.00
2007,08,14,13,24,21.00
2007,08,14,13,25,21.00
2007,08,14,13,26,21.10
2007,08,14,13,27,21.20
2007,08,14,13,28,21.40
2007,08,14,13,29,21.60
2007,08,14,13,30,21.70
2007,08,14,13,31,21.80
2007,08,14,13,32,21.80
2007,08,14,13,33,21.80
2007,08,14,13,34,21.80
2007,08,14,13,35,21.80
2007,08,14,13,36,21.70
2007,08,14,13,37,21.70
2007,08,14,13,38,21.60
2007,08,14,13,39,21.60
2007,08,14,13,40,21.70
2007,08,14,13,41,21.80
2007,08,14,13,42,21.80
2007,08,14,13,43,21.90
2007,08,14,13,44,21.90
2007,08,14,13,45,22.00
2007,08,14,13,46,22.00
2007,08,14,13,47,22.10
2007,08,14,13,48,22.10
2007,08,14,13,49,22.10
2007,08,14,13,50,22.10
2007,08,14,13,51,22.10
2007,08,14,13,52,22.10
2007,08,14,13,53,22.10
2007,08,14,13,54,22.00
2007,08,14,13,55,21.90
2007,08,14,13,56,21.80
2007,08,14,13,57,21.70
2007,08,14,13,58,21.70
2007,08,14,13,59,21.70
2007,08,14,14,00,21.80
2007,08,14,14,01,21.80
2007,08,14,14,02,21.80
2007,08,14,14,03,21.80
2007,08,14,14,04,21.90
2007,08,14,14,05,22.00
2007,08,14,14,06,22.10
2007,08,14,14,07,22.10
2007,08,14,14,08,22.00
2007,08,14,14,09,22.00
2007,08,14,14,10,22.00
2007,08,14,14,11,22.10
2007,08,14,14,12,22.10
2007,08,14,14,13,22.10
2007,08,14,14,14,22.00
2007,08,14,14,15,21.90
2007,08,14,14,16,21.90
2007,08,14,14,17,21.80
2007,08,14,14,18,21.90
2007,08,14,14,19,21.90
2007,08,14,14,20,21.90
2007,08,14,14,21,22.00
2007,08,14,14,22,21.90
2007,08,14,14,23,21.90
2007,08,14,14,24,21.80
2007,08,14,14,25,21.80
2007,08,14,14,26,21.80
2007,08,14,14,27,21.80
2007,08,14,14,28,21.80
2007,08,14,14,29,21.90
2007,08,14,14,30,22.00
2007,08,14,14,31,21.90
2007,08,14,14,32,21.80
2007,08,14,14,33,21.80
2007,08,14,14,34,21.70
2007,08,14,14,35,21.60
2007,08,14,14,36,21.50
2007,08,14,14,37,21.50
2007,08,14,14,38,21.40
2007,08,14,14,39,21.50
2007,08,14,14,40,21.40
2007,08,14,14,41,21.40
2007,08,14,14,42,21.50
2007,08,14,14,43,21.60
2007,08,14,14,44,21.70
2007,08,14,14,45,21.70
2007,08,14,14,46,21.70
2007,08,14,14,47,21.70
2007,08,14,14,48,21.60
2007,08,14,14,49,21.50
2007,08,14,14,50,21.40
2007,08,14,14,51,21.40
2007,08,14,14,52,21.40
2007,08,14,14,53,21.50
2007,08,14,14,54,21.60
2007,08,14,14,55,21.70
2007,08,14,14,56,21.70
2007,08,14,14,57,21.60
2007,08,14,14,58,21.60
2007,08,14,14,59,21.60
2007,08,14,15,00,21.60
2007,08,14,15,01,21.70
2007,08,14,15,02,21.80
2007,08,14,15,03,21.90
2007,08,14,15,04,21.90
2007,08,14,15,05,21.90
2007,08,14,15,06,21.90
2007,08,14,15,07,21.90
2007,08,14,15,08,21.90
2007,08,14,15,09,21.80
2007,08,14,15,10,21.80
2007,08,14,15,11,21.80
2007,08,14,15,12,21.80
2007,08,14,15,13,21.80
2007,08,14,15,14,21.90
2007,08,14,15,15,22.00
2007,08,14,15,16,22.10
2007,08,14,15,17,22.30
2007,08,14,15,18,22.40
2007,08,14,15,19,22.50
2007,08,14,15,20,22.60
2007,08,14,15,21,22.60
2007,08,14,15,22,22.50
2007,08,14,15,23,22.50
2007,08,14,15,24,22.50
2007,08,14,15,25,22.50
2007,08,14,15,26,22.60
2007,08,14,15,27,22.70
2007,08,14,15,28,22.80
2007,08,14,15,29,22.80
2007,08,14,15,30,22.80
2007,08,14,15,31,22.90
2007,08,14,15,32,23.00
2007,08,14,15,33,23.00
2007,08,14,15,34,23.10
2007,08,14,15,35,23.10
2007,08,14,15,36,23.10
2007,08,14,15,37,23.10
2007,08,14,15,38,23.20
2007,08,14,15,39,23.10
2007,08,14,15,40,23.10
2007,08,14,15,41,23.00
2007,08,14,15,42,22.90
2007,08,14,15,43,22.80
2007,08,14,15,44,22.70
2007,08,14,15,45,22.60
2007,08,14,15,46,22.70
2007,08,14,15,47,22.70
2007,08,14,15,48,22.70
2007,08,14,15,49,22.70
2007,08,14,15,50,22.70
2007,08,14,15,51,22.70
2007,08,14,15,52,22.70
2007,08,14,15,53,22.60
2007,08,14,15,54,22.60
2007,08,14,15,55,22.60
2007,08,14,15,56,22.60
2007,08,14,15,57,22.70
2007,08,14,15,58,22.70
2007,08,14,15,59,22.70
2007,08,14,16,00,22.70
2007,08,14,16,01,22.70
2007,08,14,16,02,22.70
2007,08,14,16,03,22.70
2007,08,14,16,04,22.60
2007,08,14,16,05,22.50
2007,08,14,16,06,22.40
2007,08,14,16,07,22.30
2007,08,14,16,08,22.30
2007,08,14,16,09,22.30
2007,08,14,16,10,22.30
2007,08,14,16,11,22.40
2007,08,14,16,12,22.50
2007,08,14,16,13,22.60
2007,08,14,16,14,22.70
2007,08,14,16,15,22.80
2007,08,14,16,16,22.90
2007,08,14,16,17,23.00
2007,08,14,16,18,23.00
2007,08,14,16,19,23.10
2007,08,14,16,20,23.10
2007,08,14,16,21,23.10
2007,08,14,16,22,23.10
2007,08,14,16,23,23.20
2007,08,14,16,24,23.20
2007,08,14,16,25,23.20
2007,08,14,16,26,23.20
2007,08,14,16,27,23.10
2007,08,14,16,28,23.10
2007,08,14,16,29,23.20
2007,08,14,16,30,23.30
2007,08,14,16,31,23.30
2007,08,14,16,32,23.30
2007,08,14,16,33,23.20
2007,08,14,16,34,23.30
2007,08,14,16,35,23.30
2007,08,14,16,36,23.40
2007,08,14,16,37,23.30
2007,08,14,16,38,23.30
2007,08,14,16,39,23.30
2007,08,14,16,40,23.30
2007,08,14,16,41,23.30
2007,08,14,16,42,23.30
2007,08,14,16,43,23.20
2007,08,14,16,44,23.20
2007,08,14,16,45,23.20
2007,08,14,16,46,23.30
2007,08,14,16,47,23.40
2007,08,14,16,48,23.40
2007,08,14,16,49,23.40
2007,08,14,16,50,23.50
2007,08,14,16,51,23.50
2007,08,14,16,52,23.50
2007,08,14,16,53,23.50
2007,08,14,16,54,23.50
2007,08,14,16,55,23.50
2007,08,14,16,56,23.40
2007,08,14,16,57,23.30
2007,08,14,16,58,23.30
2007,08,14,16,59,23.40
2007,08,14,17,00,23.50
2007,08,14,17,01,23.50
2007,08,14,17,02,23.40
2007,08,14,17,03,23.30
2007,08,14,17,04,23.20
2007,08,14,17,05,23.10
2007,08,14,17,06,23.00
2007,08,14,17,07,23.00
2007,08,14,17,08,23.10
2007,08,14,17,09,23.10
2007,08,14,17,10,23.20
2007,08,14,17,11,23.20
2007,08,14,17,12,23.10
2007,08,14,17,13,23.10
2007,08,14,17,14,23.10
2007,08,14,17,15,23.10
2007,08,14,17,16,23.10
2007,08,14,17,17,23.10
2007,08,14,17,18,23.20
2007,08,14,17,19,23.20